Weather History for LGBL - January, 2013

Change the Weather History Date:

Friday, January 11, 2013

  Actual Average Record
Temperature  
Mean Temperature 45 °F -  
Max Temperature 53 °F - - ()
Min Temperature 37 °F - - ()
Degree Days  
Heating Degree Days 20    
Moisture  
Dew Point 36 °F    
Average Humidity 71    
Maximum Humidity 87    
Minimum Humidity 58    
Precipitation  
Precipitation 0.00 in - - ()
Sea Level Pressure  
Sea Level Pressure 29.86 in    
Wind  
Wind Speed 5 mph ()    
Max Wind Speed 9 mph    
Max Gust Speed -    
Visibility 6.2 miles    
Events Rain    
T = Trace of Precipitation, MM = Missing Value Source: Averaged Metar Reports

Daily Weather History Graph

Daily Weather History Graph

Search for Another Location

Airport or City:

Trip Planner

Search our weather history database for the weather conditions in past years. The results will help you decide how hot, cold, wet, or windy it might be!

Date:

Astronomy

Jan. 11, 2013 Rise Set
Actual Time 7:47 AM EET 5:25 PM EET
Civil Twilight 7:18 AM EET 5:55 PM EET
Nautical Twilight 6:45 AM EET 6:28 PM EET
Astronomical Twilight 6:12 AM EET 7:00 PM EET
Moon 7:05 AM EET (1/11) 5:21 PM EET (1/11)
Length of Visible Light 10h 37m
Length of Day
9h 37m
Waning Crescent, 0% of the Moon is Illuminated
Jan 11
Waning Crescent
Jan 11
New
Jan 19
First Quarter
Jan 27
Full
Feb 3
Last Quarter

Hourly Weather History & Observations

Time (EET) Temp. Windchill Dew Point Humidity Pressure Visibility Wind Dir Wind Speed Gust Speed Precip Events Conditions
12:50 AM 39.2 °F - 33.8 °F 81% 29.95 in 6.2 mi Calm Calm - N/A   Mostly Cloudy
1:50 AM 42.8 °F - 33.8 °F 70% 29.95 in 6.2 mi Calm Calm - N/A   Mostly Cloudy
2:50 AM 42.8 °F - 35.6 °F 76% 29.95 in 6.2 mi Calm Calm - N/A   Mostly Cloudy
3:50 AM 41.0 °F - 35.6 °F 81% 29.92 in 6.2 mi Calm Calm - N/A Rain Light Rain
4:50 AM 41.0 °F 36.4 °F 32.0 °F 70% 29.89 in 6.2 mi West 6.9 mph - N/A   Mostly Cloudy
5:20 AM 41.0 °F 36.4 °F 32.0 °F 70% 29.89 in 6.2 mi West 6.9 mph - N/A   Mostly Cloudy
5:50 AM 41.0 °F 36.4 °F 32.0 °F 70% 29.89 in 6.2 mi WNW 6.9 mph - N/A   Mostly Cloudy
6:20 AM 41.0 °F 36.4 °F 32.0 °F 70% 29.89 in 6.2 mi WNW 6.9 mph - N/A   Mostly Cloudy
6:50 AM 39.2 °F 33.6 °F 32.0 °F 75% 29.89 in 6.2 mi West 8.1 mph - N/A   Scattered Clouds
7:20 AM 37.4 °F 32.1 °F 32.0 °F 81% 29.89 in 6.2 mi West 6.9 mph - N/A   Scattered Clouds
8:20 AM 37.4 °F 31.4 °F 30.2 °F 75% 29.89 in 6.2 mi West 8.1 mph - N/A   Scattered Clouds
8:50 AM 39.2 °F 33.6 °F 33.8 °F 81% 29.89 in 6.2 mi West 8.1 mph - N/A   Scattered Clouds
9:20 AM 41.0 °F 36.4 °F 33.8 °F 76% 29.89 in 6.2 mi West 6.9 mph - N/A   Scattered Clouds
9:50 AM 42.8 °F 37.5 °F 33.8 °F 70% 29.89 in 6.2 mi West 9.2 mph - N/A   Partly Cloudy
10:50 AM 46.4 °F 42.4 °F 35.6 °F 66% 29.89 in 6.2 mi WNW 8.1 mph - N/A   Partly Cloudy
11:20 AM 48.2 °F - 35.6 °F 62% 29.89 in 6.2 mi NW 8.1 mph - N/A   Partly Cloudy
11:50 AM 50.0 °F - 37.4 °F 62% 29.86 in 6.2 mi NW 9.2 mph - N/A   Partly Cloudy
12:20 PM 51.8 °F - 37.4 °F 58% 29.86 in 6.2 mi NW 8.1 mph - N/A   Partly Cloudy
12:50 PM 51.8 °F - 39.2 °F 62% 29.83 in 6.2 mi NW 6.9 mph - N/A   Partly Cloudy
1:20 PM 51.8 °F - 39.2 °F 62% 29.83 in 6.2 mi NW 8.1 mph - N/A   Scattered Clouds
1:50 PM 51.8 °F - 39.2 °F 62% 29.83 in 6.2 mi NW 6.9 mph - N/A   Scattered Clouds
2:20 PM 51.8 °F - 39.2 °F 62% 29.83 in 6.2 mi NW 9.2 mph - N/A   Scattered Clouds
2:50 PM 51.8 °F - 39.2 °F 62% 29.80 in 6.2 mi NW 8.1 mph - N/A   Scattered Clouds
3:20 PM 53.6 °F - 39.2 °F 58% 29.80 in 6.2 mi NW 8.1 mph - N/A   Scattered Clouds
3:50 PM 51.8 °F - 39.2 °F 62% 29.83 in 6.2 mi NW 6.9 mph - N/A   Scattered Clouds
4:20 PM 51.8 °F - 39.2 °F 62% 29.83 in 6.2 mi NW 6.9 mph - N/A   Scattered Clouds
4:50 PM 50.0 °F - 39.2 °F 66% 29.83 in 6.2 mi NW 5.8 mph - N/A   Mostly Cloudy
5:20 PM 50.0 °F - 39.2 °F 66% 29.83 in 6.2 mi WNW 4.6 mph - N/A   Mostly Cloudy
5:50 PM 48.2 °F - 39.2 °F 71% 29.83 in 6.2 mi NW 5.8 mph - N/A   Scattered Clouds
6:20 PM 46.4 °F 42.4 °F 39.2 °F 76% 29.83 in 6.2 mi NW 8.1 mph - N/A   Scattered Clouds
6:50 PM 44.6 °F 40.2 °F 37.4 °F 76% 29.83 in 6.2 mi WNW 8.1 mph - N/A   Partly Cloudy
7:20 PM 44.6 °F 41.4 °F 37.4 °F 76% 29.83 in 6.2 mi NW 5.8 mph - N/A   Partly Cloudy
7:50 PM 41.0 °F 37.1 °F 37.4 °F 87% 29.83 in 6.2 mi SW 5.8 mph - N/A   Partly Cloudy
8:50 PM 42.8 °F 40.1 °F 37.4 °F 81% 29.83 in 6.2 mi WSW 4.6 mph - N/A   Partly Cloudy
9:50 PM 41.0 °F 37.1 °F 37.4 °F 87% 29.83 in 6.2 mi West 5.8 mph - N/A   Partly Cloudy
10:50 PM 41.0 °F 37.1 °F 35.6 °F 81% 29.86 in 6.2 mi WSW 5.8 mph - N/A   Scattered Clouds
11:50 PM 41.0 °F 36.4 °F 35.6 °F 81% 29.83 in 6.2 mi SW 6.9 mph - N/A   Mostly Cloudy